Temperature
2 2 2 1 1 0 -0 -1 -1 -1 0 2 2 2 1 0 0 -0 -0 0 1 1 1 0 -0 -0 -0 0 1 1 1 2 2 2 2 2 2 2
1 1 1 0 -0 -1 -1 -2 -2 -2 -2 -1 -0 -0 -0 -1 -1 -1 -2 -1 -1 -1 -1 -1 -1 -1 -1 -1 -0 0 0 1 1 1 1 1 1 1
0 -0 -1 -1 -1 -2 -2 -2 -2 -3 -3 -2 -1 -1 -2 -2 -2 -3 -3 -2 -2 -2 -2 -2 -2 -2 -2 -1 -1 -1 -0 -0 0 0 0 0 0 0
-1 -1 -2 -2 -2 -3 -3 -3 -3 -3 -3 -3 -2 -2 -2 -3 -3 -3 -3 -3 -3 -3 -3 -3 -3 -3 -2 -2 -2 -1 -1 -1 -1 -0 -0 -0 -0 -0
-2 -2 -2 -3 -3 -3 -3 -3 -3 -3 -3 -3 -3 -3 -3 -3 -4 -4 -4 -4 -4 -3 -4 -4 -3 -3 -3 -3 -2 -2 -2 -1 -1 -1 -1 -1 -1 -1
-2 -3 -3 -4 -4 -4 -4 -4 -4 -4 -4 -4 -4 -4 -4 -4 -4 -4 -4 -4 -4 -4 -4 -4 -4 -4 -4 -3 -3 -3 -2 -2 -2 -2 -2 -2 -2 -2
-4 -4 -4 -4 -4 -4 -4 -4 -4 -4 -4 -4 -4 -4 -4 -4 -4 -4 -5 -4 -5 -5 -5 -5 -5 -5 -4 -4 -4 -3 -3 -3 -3 -2 -2 -2 -2 -2
-4 -4 -4 -4 -4 -4 -4 -4 -4 -3 -3 -3 -3 -4 -4 -4 -4 -4 -5 -5 -5 -5 -5 -5 -5 -5 -5 -5 -5 -4 -4 -3 -3 -3 -3 -3 -3 -3
-5 -5 -5 -5 -5 -4 -4 -4 -4 -4 -4 -4 -4 -4 -4 -4 -4 -4 -5 -5 -5 -5 -5 -6 -6 -6 -6 -6 -6 -5 -5 -5 -4 -4 -4 -3 -3 -3
-5 -5 -5 -5 -5 -4 -4 -4 -4 -4 -4 -4 -4 -4 -4 -4 -4 -4 -4 -5 -5 -5 -6 -6 -6 -6 -6 -6 -6 -6 -6 -5 -5 -5 -4 -4 -4 -4
-5 -5 -5 -5 -4 -4 -4 -4 -4 -4 -4 -4 -4 -4 -4 -4 -4 -4 -5 -5 -6 -6 -6 -6 -6 -6 -6 -6 -6 -6 -6 -6 -6 -5 -5 -5 -5 -5
-5 -5 -5 -4 -4 -4 -4 -4 -4 -4 -4 -4 -4 -4 -5 -5 -5 -5 -5 -5 -6 -6 -6 -6 -6 -6 -7 -6 -6 -6 -6 -6 -6 -6 -5 -5 -5 -5
-5 -5 -5 -4 -4 -4 -4 -4 -4 -4 -4 -4 -4 -4 -5 -5 -5 -5 -5 -5 -6 -6 -6 -6 -6 -7 -7 -6 -6 -6 -6 -6 -6 -6 -5 -5 -5 -5
-5 -5 -5 -4 -4 -4 -4 -4 -4 -4 -4 -4 -4 -5 -5 -5 -5 -5 -5 -6 -6 -6 -6 -6 -6 -6 -7 -7 -6 -6 -6 -6 -6 -6 -6 -6 -6 -6
-5 -5 -5 -4 -4 -4 -4 -4 -4 -4 -5 -5 -5 -5 -5 -5 -5 -6 -6 -6 -6 -6 -6 -6 -7 -7 -7 -7 -7 -7 -7 -7 -7 -7 -7 -7 -6 -6
-5 -5 -5 -5 -5 -5 -5 -5 -5 -5 -5 -5 -5 -5 -6 -6 -6 -6 -6 -6 -7 -7 -7 -7 -7 -7 -7 -7 -7 -7 -7 -7 -7 -7 -7 -7 -7 -7
-5 -5 -5 -5 -5 -5 -5 -5 -5 -5 -5 -6 -6 -6 -6 -6 -6 -6 -6 -7 -7 -7 -7 -7 -7 -7 -7 -8 -8 -8 -8 -7 -8 -8 -8 -8 -8 -8
-6 -5 -6 -6 -6 -6 -6 -6 -6 -6 -6 -6 -6 -6 -6 -6 -6 -6 -6 -7 -7 -7 -7 -7 -7 -8 -8 -8 -8 -8 -8 -8 -8 -8 -8 -9 -8 -8
-6 -6 -6 -6 -6 -6 -6 -6 -6 -6 -6 -6 -6 -6 -6 -6 -7 -7 -7 -7 -7 -7 -7 -7 -8 -8 -9 -8 -8 -7 -8 -8 -8 -9 -9 -9 -9 -8
-7 -7 -7 -7 -6 -6 -6 -6 -6 -6 -6 -6 -7 -7 -7 -7 -7 -7 -7 -7 -7 -7 -8 -8 -8 -8 -9 -8 -8 -8 -8 -9 -9 -9 -9 -9 -9 -9
-7 -7 -7 -7 -7 -7 -7 -7 -7 -7 -7 -7 -7 -7 -7 -7 -7 -7 -7 -8 -8 -8 -8 -8 -8 -8 -9 -9 -10 -9 -9 -9 -9 -10 -10 -10 -10 -10
-7 -7 -7 -7 -7 -7 -7 -7 -7 -7 -7 -7 -7 -7 -7 -7 -7 -8 -8 -8 -8 -8 -8 -9 -9 -9 -10 -10 -10 -10 -10 -10 -10 -10 -10 -10 -11 -10
-8 -8 -8 -7 -7 -7 -7 -7 -7 -7 -7 -7 -7 -7 -7 -8 -8 -8 -8 -8 -8 -9 -9 -9 -9 -10 -10 -10 -11 -11 -10 -10 -10 -11 -10 -10 -10 -10
Wind_Speed
17 18 17 16 16 16 16 16 17 20 23 23 18 17 15 16 19 20 22 25 28 30 31 32 32 34 35 36 36 36 36 34 32 30 29 28 28 28
15 18 18 17 16 16 16 16 16 18 21 21 18 17 16 14 19 21 22 26 28 29 30 30 31 32 34 35 35 36 36 35 34 32 31 30 30 29
18 19 20 20 17 16 16 16 16 16 20 24 20 18 19 19 17 18 20 20 19 26 28 29 30 31 32 33 34 35 35 35 34 34 33 32 31 30
20 20 20 17 20 18 16 18 17 17 19 25 23 18 19 18 17 18 17 16 18 22 25 27 29 30 31 32 33 34 34 34 34 34 33 33 32 31
20 19 20 20 21 18 19 18 16 16 17 20 22 18 16 14 15 16 19 17 18 20 23 26 28 29 30 30 31 32 33 33 33 32 32 31 31 30
20 21 21 20 21 21 18 19 17 17 17 18 19 17 16 15 13 14 15 15 15 15 17 19 22 26 29 30 30 30 29 30 31 32 32 31 30 30
21 20 21 24 26 23 18 16 16 16 16 16 17 16 15 13 12 13 14 14 15 13 13 13 14 14 16 23 27 28 27 28 29 30 31 31 30 29
18 18 19 21 25 28 30 29 25 18 16 16 16 16 17 16 13 12 13 13 12 9 12 13 12 13 13 12 18 23 25 25 25 27 27 28 28 28
20 18 16 17 22 16 21 26 26 29 27 19 18 18 17 15 14 15 14 14 14 10 7 10 11 12 11 13 20 22 24 24 24 24 25 25 26 26
19 19 19 19 18 17 15 16 17 18 21 17 14 15 16 15 13 13 13 14 13 10 9 8 9 10 10 11 17 21 23 24 24 24 23 23 23 24
18 18 19 19 23 26 19 17 17 16 19 24 25 23 24 24 18 11 11 11 11 10 10 8 8 9 9 10 12 19 21 22 23 24 25 25 24 24
16 16 21 22 24 26 18 16 17 15 14 14 16 18 17 16 19 11 10 11 9 8 10 9 7 6 6 9 10 10 13 18 22 23 24 24 24 17
14 14 14 22 25 26 24 17 19 18 14 13 11 11 10 9 9 9 9 10 10 8 8 10 8 8 6 4 6 9 9 10 12 15 19 23 24 20
15 14 15 24 27 27 22 21 23 20 11 10 9 9 9 9 8 8 8 9 9 9 7 10 8 8 7 7 5 6 8 9 9 10 10 15 19 23
16 22 25 27 26 20 20 23 19 12 9 9 10 9 8 7 6 5 7 7 8 8 7 9 9 7 8 8 8 7 7 8 10 10 11 11 12 13
16 19 24 23 18 17 17 14 10 9 9 9 9 8 7 6 6 6 6 7 7 7 9 11 11 10 10 10 9 9 9 7 8 10 11 11 12 13
18 14 12 11 11 10 9 9 8 8 8 7 7 7 6 6 6 6 6 7 7 7 8 8 9 9 10 9 10 11 11 11 10 10 11 12 13 14
19 12 12 11 11 10 10 9 8 7 7 7 6 6 6 6 6 5 6 7 7 7 7 7 7 6 6 8 13 13 12 12 12 12 13 14 15 15
13 11 11 11 10 10 9 9 8 7 6 6 6 6 6 6 6 6 6 7 7 7 6 6 7 8 10 11 10 15 14 12 12 13 13 15 16 15
10 10 11 10 10 10 9 8 7 6 5 5 6 5 5 5 6 6 6 7 7 7 7 7 8 10 11 11 9 8 15 14 13 14 14 14 16 19
11 10 10 10 9 9 8 7 7 6 5 5 5 5 5 5 6 6 6 8 8 7 8 8 8 10 8 7 9 11 12 17 18 15 15 15 16 16
11 11 10 10 9 8 8 7 6 6 5 5 5 5 5 5 6 7 6 7 7 8 8 7 5 6 8 10 13 14 14 13 17 24 27 25 17 15
11 11 10 10 9 8 7 7 7 6 5 5 5 5 5 5 5 6 6 7 7 7 8 7 7 8 10 11 13 14 17 16 14 15 17 24 31 35
Wind_Direction
266 264 261 261 260 259 259 258 265 278 280 278 276 270 261 257 258 258 258 257 255 253 252 249 247 245 244 243 242 242 242 241 240 239 237 238 239 240
271 269 267 267 265 262 260 258 255 260 273 277 276 275 273 263 261 261 262 262 259 256 254 251 249 246 244 243 241 240 239 239 239 239 238 238 239 239
275 271 269 269 269 267 264 260 257 254 263 274 275 274 270 266 262 260 262 263 261 255 253 252 250 247 245 243 242 240 239 237 237 237 238 238 238 238
279 276 274 273 270 268 265 263 260 257 258 269 275 276 272 268 263 260 261 262 262 260 255 252 251 249 246 244 242 240 239 237 237 236 236 237 238 239
281 279 276 274 272 269 267 265 263 261 258 263 271 275 273 268 263 258 257 258 261 260 257 253 251 250 248 246 243 241 238 237 237 237 237 237 238 239
279 277 275 272 270 270 269 267 266 264 261 261 267 270 268 264 257 255 256 253 254 255 254 252 250 249 247 246 243 241 240 238 237 236 236 236 237 239
277 275 273 270 268 268 266 264 260 260 260 260 263 265 263 258 250 247 251 255 255 251 250 248 247 244 242 243 243 241 240 239 238 238 237 235 235 236
282 279 276 274 273 272 271 271 268 263 261 261 264 263 263 259 252 245 246 249 253 242 240 244 240 242 240 238 238 239 240 241 241 239 237 236 235 235
287 285 283 280 279 274 275 277 277 275 272 269 268 267 268 263 255 247 240 240 245 242 233 243 238 239 239 238 240 239 240 241 241 241 238 237 237 237
285 284 284 283 280 278 270 268 267 267 267 269 264 265 267 266 254 247 246 245 248 241 219 237 238 237 235 235 238 238 239 239 238 238 239 239 239 240
287 285 283 282 281 282 280 274 273 269 268 266 263 262 262 262 253 240 233 234 240 231 212 220 236 234 232 231 230 231 234 235 236 236 237 238 239 241
289 285 283 282 283 284 281 278 277 276 271 268 266 266 267 268 263 245 231 230 233 231 204 203 220 217 231 230 226 223 228 233 235 236 237 237 237 237
292 290 286 287 288 287 286 281 277 278 273 267 265 260 252 246 246 239 226 225 226 226 198 192 211 208 219 226 216 217 219 223 226 232 235 236 236 235
295 292 290 292 292 291 290 285 284 287 281 272 268 261 251 243 236 228 220 221 224 226 202 191 205 207 212 223 226 212 215 220 224 227 229 233 237 239
292 291 294 296 298 296 290 288 288 283 276 272 267 260 253 244 231 219 212 216 219 218 209 201 209 213 219 229 234 229 225 226 225 229 231 232 233 236
296 295 296 294 291 287 287 287 281 274 270 268 268 266 255 232 221 214 211 203 212 213 208 210 215 222 226 231 238 242 236 232 226 230 235 239 239 238
303 299 296 296 293 291 288 284 279 274 270 262 261 258 241 227 220 209 207 202 211 214 204 204 213 221 233 240 239 242 243 243 242 240 240 244 244 243
307 299 298 297 296 295 294 291 284 275 268 262 259 253 242 230 219 205 204 211 218 221 213 198 196 205 223 241 235 243 245 247 248 246 244 248 251 248
303 297 296 296 295 293 292 290 286 280 272 262 256 251 244 232 221 214 211 218 224 226 220 205 203 213 231 246 231 218 235 247 249 248 246 246 252 255
300 298 297 296 295 293 291 289 286 281 269 262 257 251 243 235 228 226 223 225 228 229 225 217 217 223 234 251 260 243 226 239 248 252 253 254 256 259
303 302 300 297 295 293 290 287 283 277 272 266 258 250 243 239 237 234 234 232 233 236 237 237 234 235 246 255 259 255 248 240 242 249 255 258 261 261
303 302 299 296 296 294 291 288 282 275 268 260 258 251 244 242 242 240 239 239 238 242 249 252 243 237 236 243 253 261 264 258 251 251 251 251 254 256
302 301 299 298 295 293 290 286 280 275 270 264 259 253 247 244 244 244 242 243 247 249 252 255 251 246 245 248 256 261 264 265 264 262 258 253 253 256
Height
1462 1458 1454 1450 1447 1443 1440 1437 1433 1423 1414 1414 1416 1415 1412 1408 1405 1404 1401 1400 1399 1399 1400 1401 1403 1405 1408 1412 1416 1420 1425 1429 1432 1435 1438 1441 1445 1448
1451 1447 1443 1440 1437 1433 1430 1427 1423 1418 1407 1398 1402 1403 1402 1398 1396 1395 1392 1391 1389 1388 1389 1390 1391 1394 1397 1400 1404 1408 1412 1417 1421 1425 1428 1432 1435 1438
1441 1436 1432 1429 1425 1422 1419 1416 1412 1409 1400 1388 1389 1392 1391 1389 1387 1385 1383 1382 1379 1378 1378 1379 1380 1382 1385 1389 1392 1397 1401 1405 1409 1413 1417 1421 1425 1428
1430 1425 1421 1418 1414 1411 1408 1404 1401 1399 1394 1383 1377 1381 1381 1379 1377 1376 1374 1372 1370 1368 1368 1368 1370 1372 1374 1378 1381 1385 1389 1394 1398 1402 1406 1411 1414 1418
1419 1414 1410 1407 1402 1400 1397 1393 1390 1388 1384 1377 1369 1370 1370 1369 1367 1365 1364 1362 1360 1359 1358 1358 1359 1361 1364 1366 1370 1374 1378 1382 1386 1391 1395 1399 1404 1407
1407 1402 1398 1395 1391 1388 1385 1382 1380 1377 1373 1369 1362 1360 1360 1359 1358 1355 1353 1352 1350 1350 1349 1348 1349 1350 1352 1356 1359 1363 1367 1371 1375 1380 1384 1389 1393 1397
1395 1391 1387 1384 1380 1378 1375 1371 1369 1366 1362 1359 1354 1351 1349 1349 1348 1346 1344 1343 1342 1342 1340 1340 1340 1341 1342 1345 1348 1351 1355 1360 1364 1369 1374 1378 1382 1386
1384 1380 1377 1373 1369 1367 1364 1362 1359 1356 1352 1349 1345 1342 1339 1340 1338 1337 1336 1335 1334 1334 1333 1332 1333 1332 1333 1335 1337 1341 1345 1349 1354 1358 1363 1367 1372 1376
1376 1371 1367 1363 1360 1357 1353 1350 1348 1345 1343 1340 1335 1332 1331 1330 1329 1328 1327 1326 1325 1326 1325 1324 1325 1325 1326 1327 1329 1332 1335 1339 1344 1348 1353 1357 1362 1366
1367 1363 1359 1354 1351 1348 1344 1340 1337 1334 1332 1329 1326 1323 1322 1320 1319 1319 1318 1318 1317 1318 1319 1318 1319 1319 1319 1320 1321 1323 1326 1330 1334 1339 1343 1348 1353 1357
1359 1355 1351 1346 1343 1340 1336 1331 1327 1324 1322 1320 1317 1314 1312 1311 1311 1310 1309 1310 1309 1309 1310 1311 1312 1313 1314 1314 1315 1317 1319 1323 1326 1331 1335 1340 1344 1348
1351 1347 1343 1339 1335 1331 1328 1323 1319 1315 1313 1310 1307 1305 1304 1303 1302 1302 1301 1301 1301 1302 1302 1304 1306 1308 1309 1309 1310 1311 1314 1316 1320 1323 1327 1331 1336 1339
1344 1339 1334 1331 1327 1323 1320 1315 1311 1308 1304 1301 1299 1297 1295 1294 1293 1293 1293 1294 1294 1295 1297 1298 1300 1302 1304 1305 1305 1306 1308 1311 1313 1316 1320 1323 1327 1330
1336 1331 1327 1323 1319 1314 1310 1306 1303 1300 1296 1293 1291 1289 1288 1287 1286 1286 1286 1286 1287 1289 1291 1293 1294 1297 1298 1300 1302 1302 1304 1305 1308 1310 1312 1315 1317 1320
1329 1324 1319 1315 1310 1305 1301 1297 1294 1291 1288 1286 1284 1282 1281 1280 1280 1280 1280 1280 1281 1283 1285 1287 1289 1291 1294 1295 1297 1298 1299 1300 1302 1303 1305 1307 1309 1311
1321 1316 1311 1306 1301 1297 1293 1289 1286 1284 1281 1279 1277 1276 1275 1274 1274 1274 1275 1275 1276 1277 1279 1281 1284 1286 1288 1290 1291 1292 1294 1294 1295 1296 1298 1299 1300 1301
1314 1308 1303 1298 1294 1290 1286 1283 1280 1277 1275 1273 1271 1270 1270 1270 1270 1270 1271 1271 1272 1273 1274 1276 1278 1280 1282 1284 1285 1285 1286 1287 1288 1289 1289 1289 1289 1290
1307 1301 1297 1293 1288 1284 1281 1277 1275 1272 1270 1268 1267 1266 1266 1266 1266 1266 1267 1267 1268 1269 1271 1272 1273 1275 1276 1276 1277 1277 1278 1279 1280 1280 1280 1279 1277 1278
1300 1295 1291 1287 1283 1279 1276 1272 1270 1267 1265 1264 1263 1262 1262 1262 1262 1262 1263 1263 1264 1265 1266 1267 1268 1269 1270 1269 1268 1269 1270 1270 1271 1270 1269 1268 1266 1266
1295 1290 1286 1282 1278 1274 1271 1268 1265 1263 1261 1260 1259 1258 1258 1258 1258 1259 1259 1259 1260 1260 1261 1261 1262 1262 1262 1263 1262 1261 1261 1261 1260 1259 1259 1257 1255 1254
1289 1285 1281 1277 1273 1270 1266 1264 1261 1259 1258 1256 1255 1255 1255 1255 1255 1255 1255 1255 1255 1255 1255 1255 1255 1256 1255 1255 1253 1250 1251 1250 1249 1249 1247 1246 1243 1241
1284 1280 1276 1272 1268 1265 1262 1260 1258 1256 1254 1253 1252 1251 1251 1251 1251 1250 1250 1250 1250 1250 1249 1249 1249 1248 1248 1246 1243 1241 1240 1239 1238 1236 1235 1234 1231 1226
1279 1275 1271 1267 1264 1261 1258 1256 1254 1252 1251 1250 1249 1248 1247 1247 1246 1246 1245 1245 1245 1244 1243 1242 1241 1240 1239 1237 1235 1232 1229 1228 1226 1224 1221 1219 1217 1214